Wind_Speed
10 10 10 11 10 10 9 9 9 9 9 8 8 8 8 8 7 6 6 4 3 3 3 2 2 1 2 2 3 4 4 5 6 7 8 8 9 9 9 10 10 11 12
8 9 9 9 9 9 9 9 9 8 8 8 7 7 7 7 7 6 5 4 3 3 2 2 2 2 2 2 3 3 5 6 7 8 9 9 10 10 10 11 11 12 13
6 6 7 8 8 8 8 8 8 8 8 7 7 7 6 6 6 5 5 5 3 3 2 1 2 3 3 3 4 5 6 7 7 8 9 10 11 11 12 12 12 12 13
4 4 4 5 6 6 6 7 7 7 7 7 7 7 7 7 6 6 6 5 5 4 4 3 3 3 4 5 5 6 7 7 8 8 9 10 11 11 11 12 13 14 14
3 3 3 3 4 4 5 5 6 6 7 7 7 6 7 6 6 7 6 6 6 5 5 5 5 5 5 6 6 7 8 8 9 9 10 11 12 12 12 13 13 14 15
3 3 3 2 2 3 3 4 5 5 6 7 7 6 6 6 6 7 7 7 7 6 6 7 7 7 7 7 7 8 9 9 10 11 11 12 12 13 13 13 14 14 15
3 3 3 3 2 2 2 3 4 5 5 6 6 7 6 6 6 7 7 7 7 7 7 8 8 8 8 8 8 9 10 11 11 12 13 14 14 14 14 14 14 14 15
4 4 3 3 3 3 3 3 3 4 5 5 6 7 7 7 7 7 7 7 8 8 8 8 8 9 9 9 9 10 11 12 12 13 14 14 14 14 14 14 14 15 15
6 6 5 4 4 4 4 5 5 5 5 6 6 7 8 8 8 8 8 8 8 8 9 9 9 9 10 10 11 11 12 12 13 14 14 15 15 15 15 15 15 15 15
8 7 7 6 6 6 6 7 7 7 6 6 7 8 8 9 9 8 8 9 9 10 10 10 11 11 12 13 13 13 13 13 14 15 15 15 15 15 15 15 16 16 16
9 9 8 8 8 8 8 8 8 8 7 7 8 8 9 10 10 11 10 10 11 11 11 12 13 13 13 14 14 15 15 15 15 16 16 15 15 15 15 16 16 17 17
11 10 10 10 10 10 10 10 10 10 9 9 10 10 11 12 12 12 12 12 12 13 13 14 14 14 14 14 15 15 16 16 16 17 16 16 16 16 16 16 17 17 17
13 12 12 12 12 12 12 12 12 12 12 11 11 12 13 13 13 14 14 14 14 14 15 15 15 15 16 16 16 16 16 16 17 17 17 17 17 17 17 17 17 18 18
15 14 15 15 15 15 14 14 14 14 14 14 14 14 15 16 16 16 16 15 16 16 16 17 16 16 16 16 17 17 17 17 17 18 18 18 18 18 18 18 18 18 18
17 17 17 17 18 17 16 16 16 16 17 16 16 16 17 18 18 18 18 17 17 17 17 18 18 17 17 17 17 18 18 18 18 18 19 19 18 18 18 18 19 19 19
20 19 19 20 20 19 19 19 19 19 19 19 19 19 19 20 20 20 20 19 19 19 19 19 19 18 18 18 19 19 19 19 20 20 20 20 19 18 19 19 19 19 20
22 22 21 21 21 22 22 21 21 21 21 22 22 22 22 22 22 21 22 21 21 21 20 20 20 19 19 20 20 20 21 21 21 21 21 20 20 20 20 20 20 20 20
23 23 22 23 23 23 24 23 24 24 24 25 25 25 25 24 24 24 24 24 23 22 22 21 21 21 21 21 22 22 22 23 23 23 22 22 21 21 21 21 21 21 21
25 25 25 25 25 25 26 27 27 27 27 27 28 27 28 28 27 27 27 26 25 24 24 24 24 24 23 24 24 24 24 25 24 24 24 23 23 23 23 23 23 23 23
27 27 27 27 27 27 28 29 29 29 30 30 30 30 30 30 30 30 29 28 28 27 27 26 26 26 26 27 27 27 27 27 26 26 25 25 24 25 25 25 25 24 23
29 28 29 29 28 28 29 30 31 31 31 31 31 31 31 31 31 30 30 30 30 29 29 28 27 28 28 29 29 29 28 28 28 28 27 27 26 26 26 26 25 25 24
31 31 31 31 31 31 32 32 33 32 32 32 33 33 33 33 32 32 31 31 31 31 30 30 29 30 30 30 30 30 29 29 29 29 29 28 28 27 26 26 26 26 25
32 33 32 33 33 33 33 33 33 34 34 33 33 34 34 34 33 33 33 34 34 33 32 32 32 32 33 33 32 31 31 31 31 30 30 30 29 28 28 27 27 27 27
34 35 34 34 34 35 34 34 34 35 34 34 34 34 35 35 35 36 37 36 34 33 34 34 34 34 34 34 33 33 33 33 32 32 31 31 30 30 30 29 28 28 29
36 36 36 36 36 35 35 36 37 36 34 34 35 36 36 37 37 36 36 35 35 35 35 35 35 35 34 34 34 34 34 33 33 32 31 31 30 30 30 30 30 30 30
37 37 37 36 36 37 36 36 36 36 35 36 37 37 37 38 37 36 36 36 35 35 36 36 35 35 34 34 34 34 34 34 33 32 31 31 31 31 31 31 31 31 31
Wind_Direction
64 64 63 63 64 67 73 77 77 77 79 80 79 80 80 80 83 86 89 90 80 76 75 65 51 15 327 292 288 278 274 282 286 286 287 286 286 287 289 288 289 290 289
58 63 62 61 62 66 69 73 75 73 72 71 70 71 74 74 74 74 68 71 59 46 35 16 356 350 319 293 288 294 297 294 294 291 291 291 293 290 289 289 289 288 289
47 56 57 57 59 65 70 71 71 70 67 64 62 62 64 63 59 56 49 46 45 37 34 11 342 325 317 318 315 311 313 309 302 299 298 296 296 294 293 293 290 288 287
29 39 49 53 52 54 62 66 63 61 57 53 52 52 54 52 46 41 35 31 35 31 23 8 341 325 320 318 319 318 313 311 311 310 303 300 300 300 297 295 293 291 290
5 8 20 34 38 40 48 55 55 52 47 43 43 45 42 36 31 30 26 23 22 17 11 4 349 335 327 323 323 318 315 312 313 311 307 305 304 302 299 298 296 293 292
328 337 342 339 358 13 21 32 38 37 34 33 31 31 28 25 22 20 19 19 17 13 6 359 348 334 324 319 318 317 314 312 311 311 309 307 305 302 300 298 295 295 294
296 307 319 312 311 332 352 5 19 25 24 23 22 19 13 7 5 6 4 2 2 0 356 350 344 339 332 325 319 315 314 312 310 310 309 308 305 302 300 299 296 295 296
274 285 292 292 286 298 313 325 345 1 5 7 5 1 357 354 352 349 349 347 344 342 341 337 336 334 333 328 324 320 316 313 310 309 309 308 306 305 302 300 298 296 295
266 273 277 277 272 277 294 301 306 319 328 336 341 344 345 342 343 343 342 339 336 333 332 328 329 327 328 326 323 320 315 313 312 311 310 309 306 306 304 301 299 297 295
266 267 268 265 266 271 281 291 296 296 305 316 326 329 332 336 336 337 342 344 341 334 329 326 324 322 320 318 316 315 313 310 309 310 310 308 306 305 305 303 301 298 295
267 266 261 261 267 272 279 283 291 291 294 299 310 316 318 321 327 330 331 333 332 330 328 326 326 323 321 319 314 312 313 310 311 310 310 309 306 305 306 304 301 299 297
268 266 261 263 266 270 276 280 283 287 291 296 299 303 311 313 314 315 318 321 322 323 322 321 321 320 318 316 314 313 315 311 308 310 311 309 306 304 305 303 301 300 297
269 265 260 263 263 267 272 277 281 283 285 289 293 297 302 305 305 307 311 312 313 313 313 314 314 315 316 313 313 314 316 314 312 311 309 309 306 305 304 302 302 302 300
264 263 260 261 261 264 268 274 276 281 282 283 286 291 296 299 301 302 305 304 306 307 307 309 310 312 312 311 312 314 317 316 315 313 310 308 306 304 303 303 303 303 302
259 259 257 259 262 264 268 270 272 278 280 280 281 285 290 294 296 299 300 299 300 301 302 303 304 305 308 309 310 312 312 312 313 313 312 309 307 306 307 306 305 304 303
255 258 257 260 263 266 267 270 272 276 279 278 278 281 286 289 290 293 296 294 295 296 298 297 300 303 304 304 306 308 308 308 308 310 311 310 308 308 309 308 306 305 304
255 257 258 260 263 263 266 270 272 275 277 278 278 279 281 284 286 290 292 290 291 293 296 296 297 300 301 302 304 305 307 307 308 308 308 307 305 305 304 304 304 304 303
253 254 255 257 261 264 266 269 273 274 275 277 277 278 278 281 283 286 287 287 289 291 293 294 294 296 297 298 301 304 304 304 306 307 307 304 302 300 300 301 301 301 301
251 253 255 257 260 264 266 272 275 275 274 275 276 277 277 280 281 282 283 285 288 288 288 290 291 292 292 294 296 298 300 302 303 303 303 302 299 298 298 298 298 298 298
253 254 257 259 262 264 267 271 273 274 275 275 274 275 275 278 279 279 281 282 283 284 286 287 287 288 289 291 292 294 296 298 300 299 299 298 297 297 296 296 297 296 295
256 257 258 260 262 264 267 269 272 272 275 274 272 275 274 277 278 279 279 280 283 283 283 284 285 285 286 287 289 291 292 294 296 296 295 294 294 294 294 292 293 293 293
255 256 257 258 261 265 267 269 270 272 272 273 273 272 274 276 277 279 278 277 278 281 281 282 283 283 283 284 285 287 289 290 292 292 292 292 291 292 292 292 291 290 290
256 257 259 261 264 266 268 270 271 272 273 274 274 273 275 276 277 279 279 278 279 278 279 281 282 281 282 282 283 284 285 288 289 289 289 290 289 288 289 289 288 288 288
257 259 261 263 264 266 269 270 272 273 272 272 275 277 276 278 279 278 279 279 279 279 279 282 282 282 281 281 282 282 282 283 285 286 287 287 287 286 287 287 286 287 287
256 259 261 263 264 265 267 270 271 272 273 275 276 277 278 278 278 278 279 281 282 281 281 282 282 281 280 280 280 282 282 283 284 285 285 286 285 285 285 285 284 285 285
257 259 263 265 266 266 267 269 271 272 274 275 276 276 277 276 277 278 278 279 280 281 282 282 281 281 280 280 280 281 281 282 284 284 284 284 284 283 284 284 284 284 284
Height
5913 5911 5910 5909 5908 5907 5906 5905 5904 5904 5903 5902 5902 5901 5900 5900 5899 5899 5898 5898 5897 5897 5897 5897 5896 5896 5896 5896 5895 5895 5894 5894 5893 5893 5892 5891 5890 5890 5889 5888 5887 5886 5885
5915 5914 5913 5911 5910 5909 5908 5907 5906 5906 5905 5904 5903 5903 5902 5901 5900 5900 5899 5898 5898 5897 5897 5896 5896 5896 5896 5895 5894 5894 5893 5893 5892 5891 5890 5890 5889 5888 5887 5886 5885 5884 5882
5916 5915 5915 5913 5912 5911 5910 5909 5909 5908 5907 5906 5905 5904 5903 5902 5902 5901 5900 5899 5898 5897 5897 5896 5896 5896 5895 5894 5894 5893 5892 5891 5890 5889 5889 5888 5887 5885 5885 5883 5882 5881 5880
5917 5917 5916 5915 5914 5913 5912 5911 5910 5909 5908 5907 5906 5905 5904 5904 5903 5902 5901 5900 5899 5898 5897 5896 5896 5895 5894 5894 5893 5892 5891 5890 5889 5888 5887 5886 5885 5883 5882 5881 5879 5878 5876
5918 5917 5916 5916 5915 5914 5913 5912 5912 5911 5909 5908 5907 5906 5905 5904 5903 5902 5901 5900 5899 5898 5897 5896 5895 5894 5893 5892 5892 5891 5890 5889 5888 5886 5885 5883 5882 5880 5879 5878 5876 5875 5873
5918 5917 5917 5916 5915 5915 5914 5913 5912 5911 5910 5909 5908 5907 5906 5904 5903 5902 5901 5900 5899 5898 5897 5896 5894 5893 5892 5891 5890 5889 5888 5887 5886 5884 5883 5881 5880 5878 5876 5875 5873 5872 5870
5917 5917 5916 5916 5915 5915 5914 5913 5913 5912 5911 5910 5909 5907 5905 5904 5903 5902 5901 5900 5899 5897 5896 5895 5893 5892 5891 5890 5889 5888 5886 5885 5884 5882 5880 5879 5877 5875 5873 5872 5870 5869 5867
5916 5916 5915 5915 5914 5914 5914 5913 5913 5912 5911 5910 5909 5907 5905 5904 5903 5902 5901 5900 5898 5897 5895 5894 5893 5891 5890 5889 5887 5886 5884 5883 5881 5879 5878 5876 5874 5872 5870 5868 5867 5865 5864
5914 5914 5914 5914 5913 5913 5913 5913 5912 5911 5910 5909 5908 5907 5905 5904 5902 5901 5899 5898 5897 5896 5894 5893 5891 5890 5888 5887 5885 5884 5882 5880 5878 5877 5875 5873 5871 5868 5866 5864 5863 5862 5860
5912 5912 5912 5912 5912 5912 5912 5911 5911 5910 5909 5908 5907 5906 5904 5902 5901 5899 5898 5897 5896 5894 5893 5891 5889 5888 5886 5885 5883 5881 5879 5877 5875 5873 5871 5869 5867 5865 5863 5861 5859 5858 5856
5910 5910 5910 5910 5910 5910 5910 5909 5909 5908 5908 5907 5906 5904 5903 5901 5899 5898 5897 5896 5894 5893 5891 5889 5887 5885 5883 5881 5880 5878 5876 5874 5872 5870 5868 5865 5863 5861 5859 5857 5855 5853 5852
5907 5907 5907 5907 5907 5907 5907 5907 5906 5906 5905 5904 5904 5902 5901 5899 5898 5896 5895 5894 5892 5890 5889 5887 5885 5883 5880 5878 5876 5874 5872 5870 5868 5866 5864 5862 5859 5857 5855 5853 5851 5849 5848
5903 5903 5904 5904 5904 5904 5904 5904 5904 5903 5902 5902 5901 5899 5898 5897 5895 5894 5892 5891 5889 5888 5886 5884 5882 5879 5877 5875 5873 5870 5868 5867 5865 5863 5861 5858 5856 5854 5852 5850 5847 5845 5843
5899 5899 5900 5900 5900 5900 5900 5900 5900 5899 5899 5898 5897 5896 5895 5893 5892 5890 5889 5888 5886 5884 5882 5880 5878 5876 5873 5871 5869 5867 5865 5863 5861 5859 5856 5854 5852 5849 5847 5846 5843 5841 5839
5895 5895 5896 5896 5896 5896 5896 5896 5896 5895 5895 5894 5893 5892 5891 5889 5888 5886 5885 5883 5881 5880 5878 5877 5875 5872 5870 5868 5866 5864 5861 5859 5857 5855 5852 5850 5847 5845 5843 5841 5839 5837 5835
5890 5890 5891 5891 5891 5891 5891 5891 5891 5891 5890 5889 5888 5887 5886 5885 5883 5881 5879 5878 5876 5875 5873 5872 5870 5868 5866 5864 5861 5859 5857 5855 5852 5850 5848 5845 5843 5841 5839 5837 5835 5833 5830
5884 5885 5885 5886 5886 5886 5886 5886 5886 5885 5885 5884 5883 5882 5880 5879 5877 5875 5874 5872 5871 5869 5868 5866 5865 5863 5861 5859 5857 5854 5852 5850 5847 5845 5843 5840 5838 5836 5834 5832 5830 5828 5825
5878 5878 5879 5880 5880 5880 5879 5879 5879 5879 5879 5878 5877 5876 5874 5873 5872 5870 5868 5867 5865 5864 5863 5861 5859 5857 5856 5854 5851 5849 5847 5844 5842 5840 5837 5835 5833 5831 5829 5827 5825 5822 5820
5871 5872 5873 5873 5873 5873 5873 5872 5873 5872 5871 5871 5870 5869 5868 5866 5865 5864 5862 5860 5859 5858 5856 5855 5853 5852 5850 5848 5845 5843 5841 5838 5836 5834 5832 5829 5827 5825 5823 5821 5819 5816 5814
5864 5865 5865 5866 5866 5866 5866 5866 5865 5864 5863 5862 5861 5861 5859 5858 5857 5856 5855 5853 5852 5850 5849 5848 5846 5845 5843 5841 5839 5836 5834 5832 5830 5827 5825 5823 5821 5819 5816 5814 5812 5810 5808
5855 5857 5857 5858 5858 5858 5858 5857 5857 5856 5855 5854 5853 5852 5850 5850 5849 5847 5846 5845 5844 5842 5841 5839 5838 5837 5835 5833 5831 5829 5827 5825 5822 5820 5818 5816 5814 5811 5809 5807 5805 5803 5801
5847 5848 5849 5849 5850 5850 5850 5849 5848 5848 5847 5846 5845 5843 5842 5841 5840 5839 5837 5836 5835 5833 5832 5831 5829 5828 5826 5825 5823 5821 5819 5817 5815 5812 5810 5808 5806 5804 5802 5800 5798 5795 5793
5838 5839 5840 5840 5840 5840 5840 5840 5839 5839 5838 5837 5836 5835 5834 5832 5831 5829 5828 5827 5826 5824 5823 5822 5820 5819 5817 5815 5814 5812 5810 5808 5806 5804 5802 5800 5798 5796 5793 5791 5790 5788 5785
5828 5829 5830 5830 5831 5831 5830 5830 5830 5829 5828 5828 5827 5826 5824 5823 5821 5820 5819 5817 5816 5815 5813 5811 5810 5808 5807 5805 5803 5802 5800 5798 5796 5795 5793 5791 5789 5787 5784 5783 5781 5779 5777
5818 5819 5819 5820 5820 5820 5820 5819 5819 5819 5818 5818 5817 5816 5814 5813 5812 5810 5809 5808 5806 5805 5803 5801 5799 5798 5796 5795 5793 5791 5790 5788 5787 5785 5783 5781 5779 5777 5775 5773 5771 5770 5768
5807 5808 5809 5809 5809 5810 5810 5810 5809 5809 5808 5807 5806 5805 5803 5802 5801 5800 5799 5797 5796 5795 5793 5790 5788 5786 5785 5784 5783 5781 5779 5778 5776 5775 5773 5771 5769 5768 5766 5764 5762 5760 5758